User: anonymous   Login
Location: Unspecified
(0.0000°N, 0.0000°E)
Time: 17:18:21
(UTC+00:00)
Language:

EUCROPIS - Orbit

View from above orbital plane
View from above orbital plane
View from above satellite
View from above satellite

Ground track
Ground track

The orbit data is extracted from the following two-line orbital elements,

1 43807U 18099BB  25132.75981271  .00007820  00000-0  43885-3 0  9990
2 43807  97.4745 190.2750 0004845 236.5003 123.5765 15.13608610351755
Epoch (UTC): 12 May 2025 18:14:07
Eccentricity: 0.0004845
inclination: 97.4745°
perigee height: 522 km
apogee height: 528 km
right ascension of ascending node: 190.2750°
argument of perigee: 236.5003°
revolutions per day: 15.13608610
mean anomaly at epoch: 123.5765°
orbit number at epoch: 35175

The dashed part of the orbit path shows where the satellite is in the earth's shadow,  

DLR